Time,TemperatureF,DewpointF,PressureIn,WindDirection,WindDirectionDegrees,WindSpeedMPH,WindSpeedGustMPH,Humidity,HourlyPrecipIn,Conditions,Clouds,dailyrainin,SoftwareType,DateUTC
2013-03-26 00:03:00,36.0,23.0,29.94,West,262,4.0,11.0,60,0.00,,,0.00,,2013-03-26 04:03:00,
2013-03-26 00:12:00,36.0,23.0,29.94,West,262,4.0,11.0,60,0.00,,,0.00,,2013-03-26 04:12:00,
2013-03-26 00:23:00,36.0,23.0,29.93,WNW,283,5.0,13.0,60,0.00,,,0.00,,2013-03-26 04:23:00,
2013-03-26 00:33:00,36.0,23.0,29.94,WNW,284,5.0,10.0,60,0.00,,,0.00,,2013-03-26 04:33:00,
2013-03-26 00:43:00,36.0,23.0,29.94,WNW,284,5.0,10.0,60,0.00,,,0.00,,2013-03-26 04:43:00,
2013-03-26 00:52:00,35.0,23.0,29.93,West,277,7.0,14.0,61,0.00,,,0.00,,2013-03-26 04:52:00,
2013-03-26 01:02:00,35.0,23.0,29.94,West,266,6.0,14.0,61,0.00,,,0.00,,2013-03-26 05:02:00,
2013-03-26 01:12:00,35.0,23.0,29.94,West,266,6.0,14.0,61,0.00,,,0.00,,2013-03-26 05:12:00,
2013-03-26 01:22:00,35.0,23.0,29.94,West,271,8.0,14.0,62,0.00,,,0.00,,2013-03-26 05:22:00,
2013-03-26 01:32:00,35.0,23.0,29.94,WSW,254,6.0,13.0,62,0.00,,,0.00,,2013-03-26 05:32:00,
2013-03-26 01:42:00,35.0,23.0,29.94,WSW,254,6.0,13.0,62,0.00,,,0.00,,2013-03-26 05:42:00,
2013-03-26 01:52:00,35.0,24.0,29.95,West,279,5.0,13.0,63,0.00,,,0.00,,2013-03-26 05:52:00,
2013-03-26 02:02:00,34.0,23.0,29.94,West,260,6.0,13.0,64,0.00,,,0.00,,2013-03-26 06:02:00,
2013-03-26 02:12:00,34.0,23.0,29.94,West,260,6.0,13.0,64,0.00,,,0.00,,2013-03-26 06:12:00,
2013-03-26 02:22:00,34.0,23.0,29.94,West,267,8.0,15.0,64,0.00,,,0.00,,2013-03-26 06:22:00,
2013-03-26 02:32:00,34.0,23.0,29.94,WSW,242,7.0,11.0,65,0.00,,,0.00,,2013-03-26 06:32:00,
2013-03-26 02:42:00,34.0,23.0,29.94,WSW,242,7.0,11.0,65,0.00,,,0.00,,2013-03-26 06:42:00,
2013-03-26 02:52:00,34.0,24.0,29.94,West,263,3.0,10.0,66,0.00,,,0.00,,2013-03-26 06:52:00,
2013-03-26 03:02:00,34.0,24.0,29.93,WSW,253,9.0,16.0,66,0.00,,,0.00,,2013-03-26 07:02:00,
2013-03-26 03:12:00,34.0,24.0,29.93,WSW,253,9.0,16.0,66,0.00,,,0.00,,2013-03-26 07:12:00,
2013-03-26 03:22:00,34.0,24.0,29.93,West,271,6.0,12.0,67,0.00,,,0.00,,2013-03-26 07:22:00,
2013-03-26 03:33:00,34.0,24.0,29.94,West,263,5.0,14.0,67,0.00,,,0.00,,2013-03-26 07:33:00,
2013-03-26 03:42:00,34.0,24.0,29.94,West,263,5.0,14.0,67,0.00,,,0.00,,2013-03-26 07:42:00,
2013-03-26 03:52:00,34.0,24.0,29.93,WSW,250,7.0,12.0,67,0.00,,,0.00,,2013-03-26 07:52:00,
2013-03-26 04:02:00,33.0,23.0,29.93,WSW,257,5.0,11.0,67,0.00,,,0.00,,2013-03-26 08:02:00,
2013-03-26 04:12:00,33.0,23.0,29.93,WSW,257,5.0,11.0,67,0.00,,,0.00,,2013-03-26 08:12:00,
2013-03-26 04:22:00,33.0,24.0,29.93,WNW,286,6.0,11.0,68,0.00,,,0.00,,2013-03-26 08:22:00,
2013-03-26 04:32:00,33.0,24.0,29.93,West,280,5.0,9.0,68,0.00,,,0.00,,2013-03-26 08:32:00,
2013-03-26 04:42:00,33.0,24.0,29.93,West,280,5.0,9.0,68,0.00,,,0.00,,2013-03-26 08:42:00,
2013-03-26 04:52:00,33.0,24.0,29.92,WNW,287,5.0,9.0,69,0.00,,,0.00,,2013-03-26 08:52:00,
2013-03-26 05:02:00,33.0,24.0,29.92,West,278,4.0,9.0,69,0.00,,,0.00,,2013-03-26 09:02:00,
2013-03-26 05:12:00,33.0,24.0,29.92,West,278,4.0,9.0,69,0.00,,,0.00,,2013-03-26 09:12:00,
2013-03-26 05:22:00,33.0,24.0,29.92,WNW,286,3.0,8.0,70,0.00,,,0.00,,2013-03-26 09:22:00,
2013-03-26 05:33:00,33.0,24.0,29.92,WNW,286,3.0,8.0,70,0.00,,,0.00,,2013-03-26 09:33:00,
2013-03-26 05:43:00,33.0,24.0,29.92,WNW,286,3.0,8.0,70,0.00,,,0.00,,2013-03-26 09:43:00,
2013-03-26 05:52:00,32.0,24.0,29.92,WNW,291,3.0,8.0,71,0.00,,,0.00,,2013-03-26 09:52:00,
2013-03-26 06:03:00,32.0,24.0,29.92,WNW,293,2.0,5.0,71,0.00,,,0.00,,2013-03-26 10:03:00,
2013-03-26 06:12:00,32.0,24.0,29.92,WNW,293,2.0,5.0,71,0.00,,,0.00,,2013-03-26 10:12:00,
2013-03-26 06:22:00,32.0,24.0,29.93,WNW,288,1.0,5.0,72,0.00,,,0.00,,2013-03-26 10:22:00,
2013-03-26 06:33:00,32.0,24.0,29.93,WNW,288,1.0,4.0,73,0.00,,,0.00,,2013-03-26 10:33:00,
2013-03-26 06:42:00,32.0,24.0,29.93,WNW,288,1.0,4.0,73,0.00,,,0.00,,2013-03-26 10:42:00,
2013-03-26 06:52:00,31.0,23.0,29.93,WNW,293,2.0,4.0,73,0.00,,,0.00,,2013-03-26 10:52:00,
2013-03-26 07:03:00,31.0,24.0,29.94,West,276,1.0,4.0,74,0.00,,,0.00,,2013-03-26 11:03:00,
2013-03-26 07:12:00,31.0,24.0,29.94,West,276,1.0,4.0,74,0.00,,,0.00,,2013-03-26 11:12:00,
2013-03-26 07:22:00,31.0,24.0,29.94,West,276,1.0,3.0,75,0.00,,,0.00,,2013-03-26 11:22:00,
2013-03-26 07:32:00,30.0,23.0,29.95,West,276,0.0,3.0,76,0.00,,,0.00,,2013-03-26 11:32:00,
2013-03-26 07:42:00,30.0,23.0,29.95,West,276,0.0,3.0,76,0.00,,,0.00,,2013-03-26 11:42:00,
2013-03-26 07:52:00,30.0,24.0,29.95,West,276,1.0,3.0,77,0.00,,,0.00,,2013-03-26 11:52:00,
2013-03-26 08:03:00,30.0,24.0,29.95,West,276,1.0,3.0,77,0.00,,,0.00,,2013-03-26 12:03:00,
2013-03-26 08:12:00,30.0,24.0,29.96,West,276,0.0,2.0,78,0.00,,,0.00,,2013-03-26 12:12:00,
2013-03-26 08:22:00,31.0,25.0,29.96,West,279,2.0,4.0,77,0.00,,,0.00,,2013-03-26 12:22:00,
2013-03-26 08:32:00,32.0,25.0,29.96,West,277,3.0,5.0,76,0.00,,,0.00,,2013-03-26 12:32:00,
2013-03-26 08:42:00,32.0,25.0,29.96,West,277,3.0,5.0,76,0.00,,,0.00,,2013-03-26 12:42:00,
2013-03-26 08:52:00,33.0,26.0,29.97,West,271,4.0,8.0,75,0.00,,,0.00,,2013-03-26 12:52:00,
2013-03-26 09:03:00,34.0,26.0,29.97,West,276,6.0,9.0,72,0.00,,,0.00,,2013-03-26 13:03:00,
2013-03-26 09:12:00,34.0,26.0,29.97,West,276,6.0,9.0,72,0.00,,,0.00,,2013-03-26 13:12:00,
2013-03-26 09:22:00,35.0,26.0,29.98,West,273,4.0,10.0,70,0.00,,,0.00,,2013-03-26 13:22:00,
2013-03-26 09:32:00,36.0,26.0,29.99,SSW,193,5.0,11.0,67,0.00,,,0.00,,2013-03-26 13:32:00,
2013-03-26 09:42:00,36.0,26.0,29.99,SSW,193,5.0,11.0,67,0.00,,,0.00,,2013-03-26 13:42:00,
2013-03-26 09:52:00,37.0,26.0,29.99,WNW,298,6.0,11.0,65,0.00,,,0.00,,2013-03-26 13:52:00,
2013-03-26 10:02:00,38.0,27.0,30.00,West,271,3.0,11.0,64,0.00,,,0.00,,2013-03-26 14:02:00,
2013-03-26 10:12:00,38.0,27.0,30.00,West,271,3.0,11.0,64,0.00,,,0.00,,2013-03-26 14:12:00,
2013-03-26 10:22:00,39.0,26.0,30.00,West,269,5.0,11.0,59,0.00,,,0.00,,2013-03-26 14:22:00,
2013-03-26 10:33:00,40.0,24.0,30.00,NW,304,6.0,10.0,53,0.00,,,0.00,,2013-03-26 14:33:00,
2013-03-26 10:42:00,40.0,24.0,30.00,NW,304,6.0,10.0,53,0.00,,,0.00,,2013-03-26 14:42:00,
2013-03-26 10:52:00,41.0,25.0,30.01,West,279,2.0,14.0,53,0.00,,,0.00,,2013-03-26 14:52:00,
2013-03-26 11:02:00,42.0,24.0,30.01,West,263,3.0,10.0,49,0.00,,,0.00,,2013-03-26 15:02:00,
2013-03-26 11:12:00,42.0,24.0,30.01,West,263,3.0,10.0,49,0.00,,,0.00,,2013-03-26 15:12:00,
2013-03-26 11:22:00,43.0,24.0,30.02,WNW,292,8.0,13.0,47,0.00,,,0.00,,2013-03-26 15:22:00,
2013-03-26 11:33:00,44.0,24.0,30.02,NNW,344,1.0,14.0,45,0.00,,,0.00,,2013-03-26 15:33:00,
2013-03-26 11:43:00,44.0,24.0,30.02,NNW,344,1.0,14.0,45,0.00,,,0.00,,2013-03-26 15:43:00,
2013-03-26 11:53:00,45.0,25.0,30.02,NE,49,2.0,10.0,45,0.00,,,0.00,,2013-03-26 15:53:00,
2013-03-26 12:03:00,46.0,25.0,30.03,NNW,332,6.0,12.0,44,0.00,,,0.00,,2013-03-26 16:03:00,
2013-03-26 12:13:00,46.0,25.0,30.03,NNW,332,6.0,12.0,44,0.00,,,0.00,,2013-03-26 16:13:00,
2013-03-26 12:23:00,46.0,25.0,30.03,WNW,296,8.0,13.0,43,0.00,,,0.00,,2013-03-26 16:23:00,
2013-03-26 12:32:00,48.0,25.0,30.02,NW,305,7.0,12.0,40,0.00,,,0.00,,2013-03-26 16:32:00,
2013-03-26 12:42:00,48.0,25.0,30.02,NW,305,7.0,12.0,40,0.00,,,0.00,,2013-03-26 16:42:00,
2013-03-26 12:54:00,47.0,25.0,30.03,NW,311,5.0,12.0,41,0.00,,,0.00,,2013-03-26 16:54:00,
2013-03-26 13:03:00,47.0,25.0,30.03,NW,321,4.0,8.0,41,0.00,,,0.00,,2013-03-26 17:03:00,
2013-03-26 13:12:00,47.0,25.0,30.03,NW,321,4.0,8.0,41,0.00,,,0.00,,2013-03-26 17:12:00,
2013-03-26 13:23:00,47.0,25.0,30.03,North,11,1.0,8.0,41,0.00,,,0.00,,2013-03-26 17:23:00,
2013-03-26 13:32:00,49.0,26.0,30.02,NNW,344,1.0,8.0,40,0.00,,,0.00,,2013-03-26 17:32:00,
2013-03-26 13:42:00,49.0,26.0,30.02,NNW,344,1.0,8.0,40,0.00,,,0.00,,2013-03-26 17:42:00,
2013-03-26 13:53:00,50.0,25.0,30.02,NW,321,3.0,11.0,37,0.00,,,0.00,,2013-03-26 17:53:00,
2013-03-26 14:02:00,50.0,26.0,30.02,NW,318,0.0,8.0,39,0.00,,,0.00,,2013-03-26 18:02:00,
2013-03-26 14:12:00,50.0,26.0,30.02,NW,318,0.0,8.0,39,0.00,,,0.00,,2013-03-26 18:12:00,
2013-03-26 14:23:00,51.0,24.0,30.02,NE,49,3.0,11.0,35,0.00,,,0.00,,2013-03-26 18:23:00,
2013-03-26 14:34:00,50.0,23.0,30.01,NNW,331,3.0,7.0,35,0.00,,,0.00,,2013-03-26 18:34:00,
2013-03-26 14:42:00,50.0,23.0,30.01,NNW,331,3.0,7.0,35,0.00,,,0.00,,2013-03-26 18:42:00,
2013-03-26 14:53:00,52.0,25.0,30.02,NW,316,1.0,10.0,34,0.00,,,0.00,,2013-03-26 18:53:00,
2013-03-26 15:03:00,50.0,23.0,30.02,NW,314,4.0,11.0,34,0.00,,,0.00,,2013-03-26 19:03:00,
2013-03-26 15:22:00,49.0,23.0,30.02,WNW,288,6.0,11.0,35,0.00,,,0.00,,2013-03-26 19:22:00,
2013-03-26 15:32:00,49.0,23.0,30.02,WNW,288,6.0,11.0,35,0.00,,,0.00,,2013-03-26 19:32:00,
2013-03-26 15:42:00,49.0,23.0,30.02,WNW,288,6.0,11.0,35,0.00,,,0.00,,2013-03-26 19:42:00,
2013-03-26 15:53:00,50.0,23.0,30.02,NNW,330,1.0,8.0,35,0.00,,,0.00,,2013-03-26 19:53:00,
2013-03-26 16:02:00,51.0,24.0,30.02,NW,324,3.0,9.0,35,0.00,,,0.00,,2013-03-26 20:02:00,
2013-03-26 16:13:00,51.0,24.0,30.02,NW,324,3.0,9.0,35,0.00,,,0.00,,2013-03-26 20:13:00,
2013-03-26 16:22:00,50.0,23.0,30.02,West,271,3.0,11.0,35,0.00,,,0.00,,2013-03-26 20:22:00,
2013-03-26 16:32:00,49.0,24.0,30.02,NW,310,5.0,12.0,37,0.00,,,0.00,,2013-03-26 20:32:00,
2013-03-26 16:43:00,49.0,24.0,30.02,NW,310,5.0,12.0,37,0.00,,,0.00,,2013-03-26 20:43:00,
2013-03-26 16:53:00,49.0,25.0,30.03,NW,315,1.0,10.0,38,0.00,,,0.00,,2013-03-26 20:53:00,
2013-03-26 17:02:00,50.0,25.0,30.03,NNW,342,2.0,5.0,37,0.00,,,0.00,,2013-03-26 21:02:00,
2013-03-26 17:12:00,50.0,25.0,30.03,NNW,342,2.0,5.0,37,0.00,,,0.00,,2013-03-26 21:12:00,
2013-03-26 17:22:00,50.0,25.0,30.03,NNW,342,2.0,5.0,37,0.00,,,0.00,,2013-03-26 21:22:00,
2013-03-26 17:33:00,50.0,25.0,30.03,NNW,342,2.0,5.0,37,0.00,,,0.00,,2013-03-26 21:33:00,
2013-03-26 17:43:00,50.0,25.0,30.03,NNW,342,2.0,5.0,37,0.00,,,0.00,,2013-03-26 21:43:00,
2013-03-26 18:22:00,50.0,25.0,30.04,WNW,296,1.0,8.0,37,0.00,,,0.00,,2013-03-26 22:22:00,
2013-03-26 18:33:00,50.0,25.0,30.04,WNW,296,1.0,8.0,37,0.00,,,0.00,,2013-03-26 22:33:00,
2013-03-26 18:42:00,50.0,25.0,30.04,WNW,296,1.0,8.0,37,0.00,,,0.00,,2013-03-26 22:42:00,
2013-03-26 19:23:00,47.0,26.0,30.07,NNE,28,1.0,5.0,43,0.00,,,0.00,,2013-03-26 23:23:00,
2013-03-26 19:32:00,47.0,27.0,30.08,NNE,28,2.0,4.0,45,0.00,,,0.00,,2013-03-26 23:32:00,
2013-03-26 19:43:00,47.0,27.0,30.08,NNE,28,2.0,4.0,45,0.00,,,0.00,,2013-03-26 23:43:00,
2013-03-26 19:53:00,46.0,26.0,30.09,NNE,31,2.0,4.0,46,0.00,,,0.00,,2013-03-26 23:53:00,
2013-03-26 20:02:00,45.0,27.0,30.10,NE,34,1.0,3.0,48,0.00,,,0.00,,2013-03-27 00:02:00,
2013-03-26 20:12:00,45.0,27.0,30.10,NE,34,1.0,3.0,48,0.00,,,0.00,,2013-03-27 00:12:00,
2013-03-26 20:22:00,45.0,27.0,30.11,NE,34,0.0,2.0,48,0.00,,,0.00,,2013-03-27 00:22:00,
2013-03-26 20:32:00,44.0,26.0,30.11,NE,34,0.0,3.0,48,0.00,,,0.00,,2013-03-27 00:32:00,
2013-03-26 20:42:00,44.0,26.0,30.11,NE,34,0.0,3.0,48,0.00,,,0.00,,2013-03-27 00:42:00,
2013-03-26 20:52:00,44.0,27.0,30.12,NE,34,0.0,2.0,50,0.00,,,0.00,,2013-03-27 00:52:00,
2013-03-26 21:02:00,43.0,26.0,30.13,NNE,33,2.0,5.0,51,0.00,,,0.00,,2013-03-27 01:02:00,
2013-03-26 21:12:00,43.0,26.0,30.13,NNE,33,2.0,5.0,51,0.00,,,0.00,,2013-03-27 01:12:00,
2013-03-26 21:23:00,43.0,26.0,30.14,NNE,22,2.0,4.0,51,0.00,,,0.00,,2013-03-27 01:23:00,
2013-03-26 21:33:00,42.0,26.0,30.14,NNE,22,1.0,4.0,53,0.00,,,0.00,,2013-03-27 01:33:00,
2013-03-26 21:42:00,42.0,26.0,30.14,NNE,22,1.0,4.0,53,0.00,,,0.00,,2013-03-27 01:42:00,
2013-03-26 21:53:00,41.0,26.0,30.15,NNE,22,0.0,2.0,55,0.00,,,0.00,,2013-03-27 01:53:00,
2013-03-26 22:03:00,40.0,25.0,30.16,NNE,22,0.0,1.0,55,0.00,,,0.00,,2013-03-27 02:03:00,
2013-03-26 22:12:00,40.0,25.0,30.16,NNE,22,0.0,1.0,55,0.00,,,0.00,,2013-03-27 02:12:00,
2013-03-26 22:22:00,39.0,25.0,30.16,NNE,22,0.0,0.0,56,0.00,,,0.00,,2013-03-27 02:22:00,
2013-03-26 22:32:00,38.0,24.0,30.17,NNE,22,0.0,1.0,57,0.00,,,0.00,,2013-03-27 02:32:00,
2013-03-26 22:42:00,38.0,24.0,30.17,NNE,22,0.0,1.0,57,0.00,,,0.00,,2013-03-27 02:42:00,
2013-03-26 22:53:00,38.0,25.0,30.17,NNE,22,0.0,0.0,59,0.00,,,0.00,,2013-03-27 02:53:00,
2013-03-26 23:02:00,37.0,25.0,30.18,NNE,22,0.0,1.0,61,0.00,,,0.00,,2013-03-27 03:02:00,
2013-03-26 23:12:00,37.0,25.0,30.18,NNE,22,0.0,1.0,61,0.00,,,0.00,,2013-03-27 03:12:00,
2013-03-26 23:22:00,37.0,26.0,30.18,NNE,22,0.0,1.0,64,0.00,,,0.00,,2013-03-27 03:22:00,
2013-03-26 23:33:00,36.0,26.0,30.18,NNE,22,0.0,0.0,66,0.00,,,0.00,,2013-03-27 03:33:00,
2013-03-26 23:42:00,36.0,26.0,30.18,NNE,22,0.0,0.0,66,0.00,,,0.00,,2013-03-27 03:42:00,
2013-03-26 23:53:00,35.0,25.0,30.19,NNE,22,0.0,1.0,66,0.00,,,0.00,,2013-03-27 03:53:00,